Regional Weather Roundup
Issued by NWS San Angelo, TX

Home | Current Version | Previous Version | Text Only | Print | Product List | Glossary On
Versions: 1 2 3 4 5 6 7 8 9 10 11 12 13 14 15 16 17 18 19 20 21 22 23 24 25 26 27 28 29 30 31 32 33 34 35 36 37 38 39 40 41 42 43 44 45 46 47 48 49 50
000
ASUS44 KSJT 260210
RWRSJT
WEST CENTRAL TEXAS REGIONAL WEATHER ROUNDUP
NATIONAL WEATHER SERVICE SAN ANGELO TX
900 PM CDT THU MAY 25 2017

NOTE: "FAIR" INDICATES FEW OR NO CLOUDS BELOW 12,000 FEET WITH NO
SIGNIFICANT WEATHER AND/OR OBSTRUCTIONS TO VISIBILITY.

TXZ049-054-064>066-071>073-076>078-098-099-113-114-127-128-139-140-
154-155-168>170-260300
...LOCATIONS ACROSS WEST CENTRAL TEXAS...

CITY           SKY/WX    TMP DP  RH WIND       PRES   REMARKS
SAN ANGELO     MOCLDY    88  55  32 S9        29.65R
ABILENE        PTCLDY    84  55  36 S9        29.62R
DYESS AFB      PTCLDY    86  59  39 S12       29.60R
JUNCTION       CLEAR     86  62  44 S6        29.69R
SWEETWATER     CLOUDY    87  38  17 S15       29.66R
BROWNWOOD      CLEAR     86  59  39 S12       29.63R
COLEMAN        PTCLDY    86  56  35 S13       29.64R
SONORA         CLEAR     86  61  42 S10G18    29.74R
OZONA            N/A     84  59  42 S8        29.74R
BRADY          NOT AVBL
$$

TEXAS PANHANDLE/OKLAHOMA PANHANDLE

CITY           SKY/WX    TMP DP  RH WIND       PRES   REMARKS
AMARILLO       CLEAR     81  26  13 W9        29.61R
BORGER         PTCLDY    85  30  13 SW10      29.54R
CANADIAN       PTCLDY    72  53  51 SW8       29.48R
DALHART        CLOUDY    75  37  25 SW12      29.60R
DUMAS          CLOUDY    75  34  22 SW10      29.58S
GUYMON         NOT AVBL
HEREFORD       PTCLDY    79  30  16 W10       29.64R
PAMPA          PTCLDY    77  37  23 SW12      29.57R
PERRYTON       PTCLDY    79  45  29 SW12      29.49R
$$

SOUTHERN PANHANDLE/SOUTH PLAINS/ROLLING PLAINS

CITY           SKY/WX    TMP DP  RH WIND       PRES   REMARKS
LUBBOCK        PTCLDY    91  24   9 SW17      29.62R
SNYDER         CLEAR     89  33  13 SW9       29.63R
CHILDRESS      PTCLDY    89  38  16 SW6       29.49R
SEMINOLE       MOCLDY    88  27  11 SW12G20   29.71R
$$

PERMIAN BASIN

CITY           SKY/WX    TMP DP  RH WIND       PRES   REMARKS
MIDLAND        PTCLDY    90  23   9 SW8       29.69R
ODESSA         CLOUDY    90  20   7 W9        29.70R
WINK           CLOUDY    91  20   7 W12       29.68R
$$

FAR WEST/SOUTHWEST MOUNTAINS/TRANS PECOS

CITY           SKY/WX    TMP DP  RH WIND       PRES   REMARKS
ALPINE         CLEAR     85  20   9 W7        29.89R
DRYDEN           N/A     86  64  47 SE8       29.67R
EL PASO        MOCLDY    89  21   8 W23G35    29.79R
FORT STOCKTON  PTCLDY    89  49  25 E8        29.73R
GUADALUPE PASS CLEAR     80  25  13 SW32G51   29.88R
MARFA          CLOUDY    82  22  11 W8        29.89R
PECOS          CLOUDY    92  28  10 W12       29.68R
$$

DALLAS/FORT WORTH METROPLEX

CITY           SKY/WX    TMP DP  RH WIND       PRES   REMARKS
DFW AIRPORT    MOCLDY    85  61  44 S15       29.59R
FTW MEACHAM    CLEAR     86  63  45 S15G24    29.59R
DAL-EXECUTIVE  PTCLDY    84  61  45 S13G21    29.62R
GRAND PRAIRIE  CLEAR     84  59  42 SE9       29.62R
ADDISON        CLEAR     84  59  42 S17G29    29.62R
MESQUITE       PTCLDY    80  57  45 S10       29.64R
LANCASTER      PTCLDY    81  58  46 S10G20    29.64S
$$

NORTH CENTRAL TEXAS

CITY           SKY/WX    TMP DP  RH WIND       PRES   REMARKS
SHRMAN/DENISON CLOUDY    81  60  48 S14       29.61R
GAINESVILLE    CLEAR     80  60  51 S12G17    29.60R
BRIDGEPORT     PTCLDY    86  59  40 S9G16     29.58R
DENTON         CLEAR     82  62  50 S17       29.58S
WAXAHACHIE     CLEAR     80  62  53 S12       29.65R
GRANBURY       CLOUDY    87  62  43 SE17G23   29.60S
$$

WESTERN NORTH TEXAS

CITY           SKY/WX    TMP DP  RH WIND       PRES   REMARKS
WICHITA FALLS  PTCLDY    84  62  47 S14       29.48S
VERNON         CLEAR     87  52  29 S16       29.47S
BRECKENRIDGE   PTCLDY    89  58  35 S15G21    29.57R HAZE
COMANCHE       PTCLDY    84  61  46 S10       29.63R
$$

CENTRAL AND SOUTH CENTRAL TEXAS

CITY           SKY/WX    TMP DP  RH WIND       PRES   REMARKS
AUSTIN/BERGSTM PTCLDY    82  69  64 S14       29.70R
WACO           PTCLDY    83  62  49 S15       29.65R
HILLSBORO      PTCLDY    82  62  50 SE13      29.65R
TEMPLE         PTCLDY    82  66  58 S18G24    29.67R
KILLEEN-GRAY   PTCLDY    82  66  57 S14       29.67R
FORT HOOD      PTCLDY    83  66  56 S12       29.64R
GEORGETOWN     CLEAR     84  64  51 S14G21    29.69R
LAGO VISTA     FAIR      83  67  59 S14G20    29.72R
SAN MARCOS     CLEAR     81  68  65 S14       29.73R
NEW BRAUNFELS  CLEAR     81  69  67 S12       29.71R
RANDOLPH AFB   CLEAR     79  71  75 SE14      29.72R
SAN ANTONIO    PTCLDY    82  69  64 SE16      29.71S
STINSON        CLEAR     83  70  64 SE14      29.68S
PLEASANTON     NOT AVBL
LA GRANGE      CLEAR     80  69  70 S9        29.73R
GIDDINGS       CLEAR     79  65  62 S7        29.75R
$$

EAST TEXAS

CITY           SKY/WX    TMP DP  RH WIND       PRES   REMARKS
PARIS          PTCLDY    77  61  57 S10       29.66F
CLARKSVILLE    NOT AVBL
TYLER          CLEAR     77  63  61 S7        29.69R
LONGVIEW       PTCLDY    75  66  73 SE6       29.70R
PALESTINE      CLEAR     79  61  53 S6        29.70S
NACOGDOCHES    CLEAR     75  63  64 S12       29.72R
$$

TEXAS HILL COUNTRY AND EDWARDS PLATEAU

CITY           SKY/WX    TMP DP  RH WIND       PRES   REMARKS
LLANO          CLEAR     86  63  45 S7        29.70R
HORSESHOE BAY  NOT AVBL
KERRVILLE      CLEAR     83  66  55 SE14      29.72R
FREDERICKSBRG  CLEAR     83  60  45 S6        29.72R
ROCKSPRINGS    CLEAR     82  64  54 S8        29.77R
HONDO          CLEAR     85  70  60 SE13      29.69R
UVALDE         CLEAR     83  67  58 CALM      29.68R
DEL RIO        CLEAR     88  66  48 SE9       29.63R
$$

SOUTHEAST TEXAS

CITY           SKY/WX    TMP DP  RH WIND       PRES   REMARKS
COLLEGE STN    CLEAR     79  58  48 S13       29.73R
CALDWELL       NOT AVBL
CROCKETT       CLEAR     77  59  53 S9        29.75R
BRENHAM        CLEAR     80  60  50 S9G16     29.75R
HUNTSVILLE     CLEAR     82  50  32 S10G21    29.72S
CONROE         CLEAR     77  57  50 SE13      29.75S
HOUSTON BUSH   PTCLDY    79  62  56 S15G23    29.77R
HOUSTON HOBBY  PTCLDY    76  65  68 S9        29.78S
PERLAND        CLEAR     78  65  63 S8        29.80S
WHARTON        CLEAR     74  64  69 SE9       29.78R
$$

THE UPPER TEXAS COAST

CITY           SKY/WX    TMP DP  RH WIND       PRES   REMARKS
ORANGE         CLEAR     76  65  70 S8        29.85S
PORT ARTHUR    CLEAR     71  63  75 S7        29.82S
GALVESTON      CLEAR     78  67  68 S16       29.81S
ANGLETON       CLEAR     77  67  71 S13       29.79S
BAY CITY       CLEAR     75  68  77 SE8       29.78S
$$

TEXAS COASTAL BEND, RIO GRANDE PLAINS DEEP SOUTH TEXAS

CITY           SKY/WX    TMP DP  RH WIND       PRES   REMARKS
VICTORIA       CLEAR     77  70  79 S13       29.76R
BEEVILLE       FAIR      78  74  89 SE15      29.74R
ROCKPORT       CLOUDY    79  72  79 S12G24    29.75R
PORT ARANSAS   CLOUDY    78  73  84 S23G29    29.75S
PORT LAVACA    CLEAR     76  73  90 SE12      29.77R
CORPUS CHRISTI PTCLDY    79  74  84 SE16      29.75R
KINGSVILLE NAS MOCLDY    80  77  90 SE17G28   29.73R
COTULLA        CLEAR     93  64  38 SE14      29.65R
LAREDO         CLEAR     91  72  53 SE16      29.66R
BROWNSVILLE    MOCLDY    81  75  82 SE15      29.76R
PORT ISABEL    PTCLDY    81  74  79 S18       29.75R
HEBBRONVILLE   CLEAR     85  70  59 SE14G20   29.73R
MCALLEN        MOCLDY    84  73  69 SE16G28   29.73R
WESLACO        CLEAR     81  73  75 S20       29.73R
FALFURRIAS     CLEAR     84  74  71 SE9G20    29.72R
EDINBURG       CLOUDY    85  72  64 SE16G26   29.74R
$$



USA.gov is the U.S. government's official web portal to all federal, state and local government web resources and services.